Wind_Speed
16 15 15 15 14 14 14 13 13 12 12 12 12 11 11 11 11 11 11 11 11 10 9 9 9 8 8 7 7 6 6 5 4 3 2 2 2 2 2 2 2 2 2
17 17 17 17 16 16 16 15 15 15 14 14 13 13 12 12 12 12 12 12 12 12 11 10 10 9 9 8 8 8 7 7 6 5 4 3 3 3 3 3 3 3 3
19 19 19 19 19 18 17 17 17 17 16 16 15 15 14 13 13 13 13 14 13 13 12 12 11 11 10 10 9 9 9 8 7 7 6 5 5 4 4 4 4 4 4
21 21 20 20 20 20 20 19 19 18 18 18 18 17 17 16 15 15 15 14 15 15 14 13 12 12 12 11 11 10 10 10 9 8 8 7 7 6 6 5 5 5 5
24 23 23 22 22 22 21 21 21 20 20 20 20 19 18 18 18 17 17 16 15 16 15 15 14 13 13 12 12 11 11 11 11 10 10 9 9 8 7 7 6 6 6
26 26 25 25 25 24 24 23 22 22 22 21 21 21 20 19 19 19 18 18 17 16 16 16 15 15 14 14 13 13 13 13 12 12 11 11 10 10 9 8 8 8 8
28 28 27 27 27 27 26 25 24 24 24 23 23 22 22 21 21 20 20 19 19 18 17 17 17 16 16 15 14 14 14 13 13 12 12 12 12 11 11 10 9 9 9
31 30 29 29 29 28 28 27 27 26 26 25 24 24 23 23 23 22 22 21 21 20 19 19 18 17 17 16 16 15 15 14 14 13 13 13 12 12 11 11 11 10 10
33 33 32 31 31 30 29 29 29 28 28 27 27 26 25 25 24 24 24 23 22 22 21 21 20 19 18 18 17 16 16 15 15 15 14 13 13 12 11 11 11 11 11
35 34 34 34 33 32 32 31 30 30 30 30 29 28 28 27 26 26 26 25 24 23 23 22 22 21 20 19 18 18 17 17 16 16 15 15 14 14 12 12 12 12 12
36 36 36 36 36 35 34 33 33 32 31 31 30 29 29 29 28 28 27 27 26 25 24 24 23 22 21 20 19 19 19 18 18 17 17 16 16 15 14 14 14 13 13
38 38 38 38 38 37 36 36 34 33 33 33 32 31 30 30 30 29 29 28 28 27 26 25 24 23 22 22 21 21 20 19 19 19 19 18 17 17 16 16 16 15 14
39 39 40 39 39 39 38 37 36 36 35 35 34 33 33 32 32 31 30 30 29 29 28 27 26 25 24 23 23 23 22 21 20 20 20 20 19 18 18 17 17 17 16
41 40 40 40 40 40 39 38 37 37 37 37 36 34 34 34 34 34 33 32 31 31 30 29 28 27 26 25 24 24 24 23 23 22 21 21 21 20 20 19 18 18 17
42 41 41 42 41 41 40 40 39 39 38 38 38 37 36 35 35 35 35 34 33 32 32 31 30 29 28 27 27 26 26 25 25 24 23 23 22 22 22 21 21 20 19
42 41 41 42 42 42 41 41 41 40 39 39 39 39 39 37 36 36 36 36 36 34 34 34 33 31 31 30 30 29 28 27 27 26 25 25 24 25 24 23 23 23 22
42 41 42 43 42 42 42 42 41 41 40 40 40 41 40 39 38 37 37 37 36 36 36 36 35 33 33 32 32 31 30 29 28 28 28 27 27 27 27 26 25 25 24
43 43 44 44 43 42 42 42 42 41 41 41 42 41 41 40 39 39 39 39 38 38 38 37 37 36 35 35 34 33 32 31 31 30 30 29 28 28 28 28 27 27 26
44 45 45 44 44 43 43 43 42 42 43 43 43 43 42 42 41 41 41 40 40 40 40 40 39 39 38 37 37 36 35 34 33 33 32 31 30 30 29 29 29 29 28
44 45 45 45 45 45 45 45 44 44 45 44 44 44 44 44 43 43 42 42 41 41 41 41 41 41 40 40 39 38 37 36 36 35 35 34 33 33 32 31 31 31 30
45 46 47 47 47 47 47 47 46 46 46 45 44 45 46 45 45 45 44 43 43 42 42 42 42 42 41 41 41 40 40 38 38 37 37 36 36 35 34 34 33 33 32
46 46 47 48 49 49 49 48 48 47 47 47 47 46 46 46 46 46 46 45 44 44 43 43 43 43 43 43 42 42 41 41 40 39 39 39 38 38 37 36 36 35 35
47 47 47 48 50 50 50 50 50 49 49 50 50 49 48 48 48 49 48 46 46 46 45 45 44 44 44 44 44 43 43 42 42 41 41 41 40 40 39 39 38 38 37
47 48 49 49 50 51 52 52 52 51 50 50 50 50 51 50 51 50 50 49 48 47 47 47 47 46 46 45 45 45 45 44 44 44 43 43 43 42 42 41 40 40 39
47 49 50 50 50 52 53 53 52 52 52 52 52 52 52 53 53 53 52 52 51 48 48 49 49 49 48 47 46 46 46 45 45 45 45 45 45 45 44 44 43 42 41
47 48 50 50 50 51 53 54 54 54 53 53 54 54 54 54 55 55 54 53 52 51 51 51 51 51 50 49 48 48 47 47 47 47 47 46 46 46 47 46 45 44 44
Wind_Direction
242 240 240 239 240 240 241 240 242 244 248 251 252 252 250 248 248 247 245 242 243 243 241 240 240 240 238 236 238 239 238 237 235 240 243 255 275 298 312 319 308 299 301
243 241 240 241 241 242 243 244 244 246 248 251 252 253 252 250 249 249 248 245 244 244 243 241 240 239 239 237 238 238 239 242 245 251 253 257 269 281 287 295 295 290 284
243 242 241 243 243 243 244 244 245 246 248 250 251 253 253 250 248 247 249 245 243 244 244 244 242 241 241 238 240 241 241 244 248 252 256 259 266 274 275 276 280 281 275
245 244 243 244 245 245 245 245 245 247 248 249 250 251 252 251 250 248 249 247 244 244 245 245 244 243 243 240 239 241 242 244 248 252 256 260 266 270 271 272 273 270 267
246 246 245 244 245 245 245 246 246 246 247 249 249 250 251 251 251 250 249 249 246 246 245 245 244 244 244 242 241 242 244 245 249 252 255 260 266 268 268 269 267 262 262
247 247 246 245 245 245 245 246 246 247 247 248 249 250 250 250 250 249 249 249 247 246 246 245 245 246 246 244 244 245 247 247 250 253 257 261 264 264 263 265 263 263 262
248 248 247 247 247 246 245 246 246 247 248 248 249 250 250 250 249 248 248 248 248 247 245 245 246 247 247 246 246 247 249 249 250 253 256 259 261 262 261 262 262 263 263
248 249 248 247 247 247 246 246 246 246 247 248 249 249 249 248 247 247 247 248 248 247 246 245 245 246 247 248 248 249 248 250 249 252 255 256 257 259 260 260 260 262 262
247 248 248 247 247 247 247 247 247 247 247 248 248 249 249 248 247 247 246 247 247 247 246 246 245 245 246 246 247 247 248 249 250 251 253 254 255 257 259 259 258 260 261
246 247 247 247 246 247 247 248 248 248 248 248 248 248 248 248 248 247 247 246 246 246 246 247 245 244 244 245 246 247 249 250 251 251 251 252 253 255 255 257 259 260 260
246 246 246 246 246 246 246 246 247 248 248 248 248 247 247 247 247 247 246 245 246 246 246 246 246 244 244 244 246 247 249 251 252 251 250 251 253 254 255 257 259 261 260
246 246 246 247 247 246 245 245 245 246 247 247 247 248 247 247 247 246 245 245 246 246 246 245 245 245 244 244 245 247 249 250 252 252 250 250 251 254 256 257 258 260 260
246 246 246 246 246 246 245 245 245 245 246 246 246 246 246 246 246 246 246 246 246 246 247 246 244 245 245 245 246 247 248 250 252 253 251 250 251 252 254 256 257 258 258
248 247 246 246 246 246 246 246 246 245 245 246 246 246 246 246 246 246 247 247 247 246 246 247 246 245 245 246 247 248 248 250 251 252 252 253 252 252 253 255 256 257 256
248 249 248 247 247 247 247 246 247 246 245 246 246 245 245 246 246 246 246 246 247 246 245 246 246 246 246 247 248 249 249 250 250 251 252 253 252 252 253 254 256 256 256
247 249 250 249 248 248 247 246 246 245 245 244 245 245 245 246 246 246 246 246 246 246 245 245 246 246 246 247 248 249 249 249 249 250 252 252 252 252 253 254 255 257 257
247 248 248 248 247 247 246 245 245 244 244 244 244 244 244 244 245 245 246 246 246 246 246 245 245 246 246 247 248 249 249 248 250 251 252 252 253 252 254 254 255 257 258
248 249 248 248 245 245 245 244 244 244 244 243 244 244 244 243 244 245 245 245 245 246 247 247 247 247 248 248 248 248 249 249 251 253 253 253 254 253 253 255 256 257 258
249 249 248 246 245 244 244 245 244 244 244 244 244 244 244 244 244 245 245 246 246 246 247 248 247 247 248 248 249 249 249 249 251 252 253 253 254 253 253 255 255 255 256
249 248 247 245 245 245 244 245 245 244 244 245 244 244 245 245 245 245 245 246 247 248 248 247 246 248 248 249 250 249 249 249 250 252 252 253 253 253 253 254 254 254 255
248 247 246 246 246 246 246 246 246 246 245 246 246 246 245 245 245 245 246 247 247 248 248 246 246 248 248 249 250 250 250 250 250 251 252 253 253 253 253 254 255 256 257
247 247 247 247 246 247 247 246 246 245 245 246 246 246 246 245 245 245 246 245 247 247 247 247 248 249 249 250 251 251 251 251 252 252 254 254 254 254 254 255 256 256 257
246 247 247 248 247 246 246 246 247 247 246 246 246 246 246 245 246 245 245 245 247 247 247 249 249 250 251 253 253 252 252 252 253 254 255 255 255 254 254 255 256 257 257
247 247 247 247 248 247 247 247 247 247 247 248 248 248 246 246 246 246 246 246 246 246 248 250 250 251 252 253 252 252 252 253 253 254 254 254 254 254 254 255 255 257 257
247 247 247 247 248 248 248 248 247 247 247 248 247 248 247 246 246 247 246 246 245 246 248 249 250 250 252 253 253 253 253 253 253 254 254 254 254 255 255 255 255 257 257
248 247 247 247 248 248 248 247 247 247 247 248 247 247 247 246 246 247 246 244 245 247 248 249 249 249 250 251 252 253 253 253 254 254 254 255 255 256 256 256 255 256 257
Height
5841 5842 5843 5843 5844 5845 5846 5846 5847 5848 5849 5850 5850 5851 5851 5852 5852 5853 5853 5853 5854 5854 5855 5855 5855 5855 5856 5856 5857 5857 5857 5858 5858 5857 5857 5857 5857 5857 5857 5856 5856 5856 5856
5838 5839 5840 5840 5841 5843 5844 5844 5845 5846 5847 5848 5848 5849 5849 5850 5850 5851 5851 5852 5852 5853 5853 5854 5854 5854 5855 5855 5856 5856 5856 5857 5857 5857 5857 5857 5857 5856 5856 5856 5856 5855 5855
5834 5835 5837 5838 5838 5839 5841 5842 5843 5843 5844 5845 5846 5847 5847 5848 5848 5848 5849 5850 5850 5851 5852 5852 5853 5853 5854 5854 5854 5855 5855 5856 5856 5856 5856 5856 5856 5856 5856 5855 5855 5855 5855
5830 5832 5833 5834 5835 5836 5837 5838 5839 5840 5841 5842 5843 5844 5845 5845 5846 5846 5847 5847 5848 5849 5850 5850 5851 5852 5852 5853 5853 5853 5854 5854 5855 5855 5855 5855 5855 5855 5855 5854 5854 5854 5854
5826 5827 5829 5830 5831 5832 5833 5835 5836 5837 5838 5839 5840 5841 5842 5842 5843 5844 5844 5845 5845 5846 5847 5848 5849 5849 5850 5851 5851 5852 5852 5853 5853 5854 5854 5854 5854 5854 5853 5853 5853 5853 5853
5821 5822 5824 5825 5826 5828 5829 5831 5832 5833 5834 5835 5836 5837 5838 5839 5840 5841 5841 5842 5843 5844 5845 5846 5846 5847 5848 5849 5849 5850 5850 5851 5851 5852 5852 5852 5852 5852 5852 5852 5852 5852 5852
5815 5817 5819 5820 5822 5823 5825 5826 5828 5829 5830 5831 5832 5833 5834 5835 5836 5837 5838 5839 5840 5841 5842 5843 5844 5845 5846 5846 5847 5848 5848 5848 5849 5849 5850 5850 5850 5850 5850 5850 5850 5850 5850
5809 5811 5813 5815 5816 5818 5820 5821 5823 5824 5825 5827 5828 5829 5830 5831 5832 5833 5834 5835 5836 5837 5839 5840 5841 5842 5843 5844 5844 5845 5845 5846 5846 5847 5848 5848 5848 5848 5848 5849 5849 5848 5848
5802 5804 5806 5808 5810 5812 5814 5816 5817 5819 5820 5822 5823 5824 5826 5827 5828 5829 5830 5831 5832 5834 5835 5836 5837 5838 5839 5840 5841 5842 5843 5843 5844 5844 5845 5845 5846 5846 5846 5846 5846 5846 5846
5795 5797 5799 5802 5804 5806 5808 5809 5811 5813 5815 5816 5817 5819 5821 5822 5823 5824 5826 5827 5828 5829 5831 5832 5833 5834 5836 5837 5838 5839 5840 5840 5841 5841 5842 5843 5843 5844 5844 5844 5844 5844 5844
5787 5790 5792 5794 5796 5799 5801 5803 5805 5807 5808 5810 5811 5813 5815 5817 5818 5819 5821 5822 5823 5825 5826 5828 5829 5830 5832 5833 5834 5835 5836 5837 5838 5838 5839 5840 5840 5841 5841 5841 5842 5842 5842
5779 5781 5783 5786 5788 5790 5793 5795 5797 5800 5802 5803 5805 5807 5809 5810 5812 5814 5815 5817 5819 5820 5822 5823 5824 5826 5827 5829 5830 5831 5832 5833 5834 5835 5836 5836 5837 5838 5838 5838 5839 5839 5839
5769 5772 5774 5777 5779 5782 5785 5787 5789 5792 5794 5796 5798 5800 5802 5804 5806 5807 5809 5811 5813 5815 5816 5818 5820 5821 5823 5824 5826 5827 5828 5829 5830 5831 5832 5832 5833 5834 5834 5835 5835 5835 5836
5760 5762 5765 5768 5770 5773 5776 5778 5781 5784 5786 5788 5790 5793 5795 5797 5799 5801 5803 5805 5807 5809 5811 5813 5814 5816 5817 5819 5821 5822 5823 5825 5826 5827 5828 5828 5829 5830 5831 5831 5831 5832 5832
5750 5753 5756 5758 5761 5764 5766 5769 5772 5774 5777 5780 5782 5784 5787 5789 5792 5794 5796 5798 5800 5802 5805 5807 5808 5810 5812 5814 5815 5817 5818 5820 5821 5822 5823 5824 5825 5825 5826 5827 5827 5828 5828
5740 5743 5746 5748 5751 5754 5756 5759 5762 5764 5767 5770 5773 5775 5777 5781 5783 5786 5788 5791 5793 5795 5798 5800 5801 5803 5806 5808 5809 5811 5812 5814 5815 5816 5818 5819 5820 5821 5821 5822 5823 5823 5824
5730 5733 5735 5738 5740 5743 5746 5749 5752 5755 5757 5760 5762 5765 5768 5772 5775 5778 5780 5783 5785 5788 5790 5792 5794 5796 5799 5801 5803 5804 5806 5808 5809 5811 5812 5813 5814 5815 5816 5817 5818 5818 5819
5719 5722 5725 5727 5730 5733 5736 5739 5742 5745 5748 5750 5753 5755 5759 5762 5765 5768 5772 5774 5777 5780 5782 5785 5787 5789 5791 5794 5796 5797 5799 5801 5803 5804 5805 5807 5808 5809 5810 5811 5812 5813 5814
5709 5711 5714 5717 5720 5723 5726 5729 5732 5735 5738 5740 5743 5746 5749 5752 5755 5759 5762 5765 5768 5771 5774 5777 5779 5781 5783 5786 5788 5790 5792 5794 5795 5797 5798 5800 5801 5802 5804 5805 5805 5806 5808
5697 5700 5702 5706 5709 5712 5715 5718 5721 5724 5727 5730 5733 5736 5739 5742 5745 5749 5752 5756 5759 5762 5765 5768 5771 5773 5775 5777 5779 5781 5783 5786 5788 5789 5791 5792 5794 5795 5796 5798 5799 5800 5801
5685 5688 5691 5694 5698 5701 5704 5708 5711 5714 5717 5720 5723 5726 5729 5732 5735 5739 5742 5746 5749 5753 5755 5758 5761 5764 5766 5768 5771 5773 5774 5777 5779 5781 5782 5784 5786 5787 5789 5790 5791 5792 5793
5674 5676 5679 5682 5686 5689 5693 5696 5699 5702 5705 5708 5712 5714 5718 5721 5724 5728 5732 5735 5739 5743 5745 5748 5751 5754 5756 5759 5761 5763 5765 5768 5770 5772 5774 5775 5777 5778 5780 5782 5783 5784 5785
5662 5665 5668 5670 5674 5677 5680 5683 5686 5689 5693 5696 5700 5703 5706 5709 5713 5716 5720 5724 5728 5732 5735 5738 5741 5744 5746 5749 5751 5754 5756 5758 5760 5763 5764 5766 5768 5769 5771 5773 5774 5776 5777
5649 5652 5655 5658 5661 5664 5667 5670 5674 5677 5681 5685 5688 5691 5694 5698 5701 5704 5708 5712 5716 5720 5724 5727 5730 5733 5736 5738 5740 5743 5746 5749 5751 5753 5755 5756 5758 5759 5761 5763 5764 5766 5767
5636 5639 5642 5645 5648 5651 5654 5657 5661 5664 5668 5671 5675 5678 5681 5685 5688 5692 5696 5700 5704 5708 5712 5715 5718 5721 5724 5727 5730 5732 5734 5737 5739 5742 5744 5746 5747 5749 5751 5753 5754 5756 5757
5622 5625 5628 5631 5634 5637 5640 5643 5647 5651 5654 5658 5661 5665 5668 5671 5675 5679 5683 5687 5691 5695 5699 5703 5706 5709 5712 5715 5718 5720 5723 5725 5728 5730 5733 5735 5737 5738 5739 5742 5744 5745 5747